Location: Ravensburg
(48.5621°N, 13.4088°E)
Time: 19:48:05
(UTC+02:00)

ISS - Pass Details

Date: 27 March 2017
Orbit: 399 x 409 km, 51.6° (Epoch: 29 March)

Event Time Altitude Azimuth Distance (km) Brightness Sun altitude
Rises 20:14:05 0° 186° (S) 2,299 -0.1 -8.1°
Reaches altitude 10° 20:18:04 10° 137° (SE) 1,451 -1.5 -8.7°
Maximum altitude 20:18:17 10° 133° (SE) 1,449 -1.6 -8.7°
Enters shadow 20:18:28 10° 130° (SE) 1,451 -1.6 -8.8°
